EQUISAT (43552 NORAD) Tracking and Keplerian Element Data

This shows tracking and keplerian element data for the satellite.

Feedback or suggestion? Click here.




ElementValue
Catalog43552
NameEQUISAT
Epoch Orbit14061
Epoch Day361.21801847
Epoch Year2020
RAAN8.3673
Inclination51.6122
Eccentricity6.76E-05
Argument of Perigee209.2273
Mean Anonmoly150.8717
Mean Motion16.43170683
Decay Rate0.10316869
L11 43552U 98067PA 20361.21801847 .10316869 12478-4 50011-3 0 9992
L22 43552 51.6122 8.3673 0000676 209.2273 150.8717 16.43170683140619



Live tracking and technical data element details for EQUISAT (NORAD 43552). EQUISAT can be tracked NOW for your location showing map with azimuth and elevation plus other details from your city location.







IsCatalogInMostPopularTable: catalog: 43552, numindb: 532
Update: records affected: 1



GetName: 43552 EQUISAT

Hit Count: updated at: Fri, 02 Dec 2022 12:40:23 GMT